When you browse on this site, cookies collect data to enhance your experience and personalize the content and advertising you see.
Visit our Privacy Policy to learn more. By continuing to use the site, you agree to this use of cookies and data.
  • Em Portugal
  • Lista de países
  • Para 7 dias
  • Temperatura da água
  • Mapas de satélite
  • Mapa do tempo
  • Widgets de tempo
  • user-avatar
    Iniciar Sessão

    Previsão horária em Uspenskiy

    Hoje, 18 Fevereiro, Segunda-feira

    Tempo Temperatura Precipitação Vento Pressão Humidade
    00:00 -5°C° 0 mm 6 m/s 736 mmHg 80%
    01:00 -6°C° 0 mm 6 m/s 737 mmHg 80%
    02:00 -6°C° 0 mm 6 m/s 737 mmHg 81%
    03:00 -8°C° 0 mm 6 m/s 738 mmHg 82%
    04:00 -8°C° 0 mm 6 m/s 738 mmHg 83%
    05:00 -9°C° 0 mm 6 m/s 739 mmHg 85%
    06:00 -9°C° 0 mm 6 m/s 740 mmHg 85%
    07:00 -9°C° 0 mm 6 m/s 740 mmHg 86%
    08:00 -10°C° 0 mm 5 m/s 741 mmHg 86%
    09:00 -9°C° 0 mm 6 m/s 742 mmHg 84%
    10:00 -8°C° 0 mm 6 m/s 742 mmHg 82%
    11:00 -8°C° 0 mm 7 m/s 743 mmHg 79%
    12:00 -6°C° 0 mm 6 m/s 743 mmHg 79%
    13:00 -6°C° 0 mm 6 m/s 743 mmHg 79%
    14:00 -6°C° 0 mm 5 m/s 744 mmHg 79%
    15:00 -7°C° 0 mm 5 m/s 744 mmHg 81%
    16:00 -8°C° 0 mm 4 m/s 744 mmHg 83%
    17:00 -8°C° 0 mm 3 m/s 745 mmHg 84%
    18:00 -9°C° 0 mm 3 m/s 745 mmHg 86%
    19:00 -10°C° 0 mm 3 m/s 746 mmHg 87%
    20:00 -10°C° 0 mm 3 m/s 746 mmHg 89%
    21:00 -10°C° 0 mm 2 m/s 747 mmHg 89%
    22:00 -10°C° 0 mm 2 m/s 747 mmHg 90%
    23:00 -12°C° 0 mm 2 m/s 747 mmHg 91%

    Amanhã, 19 Fevereiro, Terça-feira

    Tempo Temperatura Precipitação Vento Pressão Humidade
    00:00 -10°C° 0 mm 1 m/s 747 mmHg 91%
    01:00 -11°C° 0 mm 1 m/s 748 mmHg 91%
    02:00 -11°C° 0 mm 0 m/s 748 mmHg 91%
    03:00 -11°C° 0 mm 1 m/s 748 mmHg 90%
    04:00 -11°C° 0 mm 1 m/s 748 mmHg 89%
    05:00 -13°C° 0 mm 2 m/s 748 mmHg 89%
    06:00 -12°C° 0 mm 2 m/s 747 mmHg 88%
    07:00 -12°C° 0 mm 2 m/s 747 mmHg 88%
    08:00 -13°C° 0 mm 3 m/s 747 mmHg 87%
    09:00 -10°C° 0 mm 3 m/s 747 mmHg 85%
    10:00 -9°C° 0 mm 4 m/s 747 mmHg 83%
    11:00 -8°C° 0 mm 4 m/s 746 mmHg 81%
    12:00 -7°C° 0 mm 4 m/s 746 mmHg 81%
    13:00 -6°C° 0 mm 5 m/s 746 mmHg 80%
    14:00 -5°C° 0 mm 5 m/s 745 mmHg 80%
    15:00 -6°C° 0 mm 5 m/s 745 mmHg 81%
    16:00 -6°C° 0 mm 5 m/s 744 mmHg 82%
    17:00 -7°C° 0 mm 5 m/s 744 mmHg 83%
    18:00 -7°C° 0 mm 5 m/s 743 mmHg 84%
    19:00 -8°C° 0 mm 5 m/s 743 mmHg 85%
    20:00 -8°C° 0 mm 5 m/s 743 mmHg 85%
    21:00 -9°C° 0 mm 6 m/s 742 mmHg 85%
    22:00 -9°C° 0 mm 6 m/s 741 mmHg 85%
    23:00 -9°C° 0 mm 6 m/s 741 mmHg 84%

    Depois de amanhã, 20 Fevereiro, Quarta-feira

    Tempo Temperatura Precipitação Vento Pressão Humidade
    00:00 -9°C° 0 mm 6 m/s 740 mmHg 85%
    01:00 -9°C° 0 mm 6 m/s 740 mmHg 85%
    02:00 -9°C° 0 mm 6 m/s 739 mmHg 86%
    03:00 -9°C° 0 mm 6 m/s 739 mmHg 86%
    04:00 -8°C° 0 mm 6 m/s 738 mmHg 87%
    05:00 -8°C° 0 mm 6 m/s 737 mmHg 88%
    06:00 -8°C° 0 mm 6 m/s 737 mmHg 89%
    07:00 -6°C° 0 mm 6 m/s 737 mmHg 90%
    08:00 -6°C° 0 mm 6 m/s 737 mmHg 90%
    09:00 -5°C° 0 mm 6 m/s 736 mmHg 91%
    10:00 -5°C° 0 mm 6 m/s 736 mmHg 91%
    11:00 -4°C° 0 mm 6 m/s 736 mmHg 91%
    12:00 -3°C° 0.1 mm 6 m/s 736 mmHg 91%
    13:00 -3°C° 0.1 mm 6 m/s 735 mmHg 91%
    14:00 -3°C° 0.1 mm 6 m/s 735 mmHg 91%
    15:00 -3°C° 0.1 mm 6 m/s 735 mmHg 92%
    16:00 -2°C° 0.1 mm 5 m/s 735 mmHg 92%
    17:00 -1°C° 0.1 mm 5 m/s 735 mmHg 92%
    18:00 -1°C° 0 mm 5 m/s 735 mmHg 91%
    19:00 -2°C° 0 mm 5 m/s 734 mmHg 91%
    20:00 -2°C° 0 mm 5 m/s 734 mmHg 91%
    21:00 -2°C° 0 mm 6 m/s 734 mmHg 91%
    22:00 -2°C° 0 mm 6 m/s 733 mmHg 91%
    23:00 -2°C° 0 mm 6 m/s 733 mmHg 91%

    21 Fevereiro, Quinta-feira

    Tempo Temperatura Precipitação Vento Pressão Humidade
    00:00 -2°C° 0.1 mm 6 m/s 733 mmHg 91%
    01:00 -2°C° 0.1 mm 6 m/s 732 mmHg 91%
    02:00 -2°C° 0.1 mm 6 m/s 732 mmHg 90%
    03:00 -3°C° 0.3 mm 6 m/s 732 mmHg 86%
    04:00 -4°C° 0.3 mm 6 m/s 732 mmHg 82%
    05:00 -5°C° 0.3 mm 6 m/s 731 mmHg 79%
    06:00 -6°C° 0 mm 6 m/s 732 mmHg 81%
    07:00 -7°C° 0 mm 5 m/s 732 mmHg 83%
    08:00 -8°C° 0 mm 5 m/s 732 mmHg 85%
    09:00 -7°C° 0 mm 5 m/s 733 mmHg 84%
    10:00 -6°C° 0 mm 6 m/s 733 mmHg 83%
    11:00 -5°C° 0 mm 6 m/s 733 mmHg 81%
    12:00 -5°C° 0.1 mm 6 m/s 733 mmHg 82%
    13:00 -6°C° 0.1 mm 7 m/s 733 mmHg 82%
    14:00 -6°C° 0.1 mm 7 m/s 733 mmHg 83%
    15:00 -6°C° 0.1 mm 6 m/s 733 mmHg 81%
    16:00 -8°C° 0.1 mm 6 m/s 733 mmHg 79%
    17:00 -9°C° 0.1 mm 6 m/s 734 mmHg 78%
    18:00 -9°C° 0 mm 6 m/s 734 mmHg 79%
    19:00 -9°C° 0 mm 6 m/s 735 mmHg 81%
    20:00 -9°C° 0 mm 7 m/s 736 mmHg 83%
    21:00 -9°C° 0 mm 7 m/s 736 mmHg 83%
    22:00 -10°C° 0 mm 6 m/s 737 mmHg 83%
    23:00 -10°C° 0 mm 6 m/s 738 mmHg 83%

    22 Fevereiro, Sexta-feira

    Tempo Temperatura Precipitação Vento Pressão Humidade
    00:00 -10°C° 0 mm 6 m/s 738 mmHg 83%
    01:00 -11°C° 0 mm 6 m/s 739 mmHg 83%
    02:00 -11°C° 0 mm 6 m/s 739 mmHg 83%
    03:00 -12°C° 0 mm 6 m/s 740 mmHg 83%
    04:00 -12°C° 0 mm 6 m/s 740 mmHg 83%
    05:00 -14°C° 0 mm 6 m/s 741 mmHg 82%
    06:00 -14°C° 0 mm 6 m/s 742 mmHg 82%
    07:00 -15°C° 0 mm 6 m/s 742 mmHg 81%
    08:00 -15°C° 0 mm 7 m/s 743 mmHg 80%
    09:00 -15°C° 0 mm 7 m/s 743 mmHg 79%
    10:00 -15°C° 0 mm 7 m/s 744 mmHg 78%
    11:00 -16°C° 0 mm 8 m/s 744 mmHg 77%
    12:00 -16°C° 0 mm 8 m/s 745 mmHg 76%
    13:00 -15°C° 0 mm 8 m/s 745 mmHg 76%
    14:00 -15°C° 0 mm 8 m/s 745 mmHg 75%
    15:00 -14°C° 0 mm 7 m/s 746 mmHg 77%
    16:00 -15°C° 0 mm 7 m/s 746 mmHg 78%
    17:00 -15°C° 0 mm 6 m/s 747 mmHg 79%
    18:00 -15°C° 0 mm 6 m/s 747 mmHg 80%
    19:00 -15°C° 0 mm 6 m/s 748 mmHg 81%
    20:00 -15°C° 0 mm 6 m/s 748 mmHg 82%
    21:00 -15°C° 0 mm 6 m/s 748 mmHg 83%
    22:00 -15°C° 0 mm 6 m/s 749 mmHg 84%
    23:00 -15°C° 0 mm 6 m/s 750 mmHg 84%

    23 Fevereiro, Sábado

    Tempo Temperatura Precipitação Vento Pressão Humidade
    00:00 -14°C° 0 mm 5 m/s 750 mmHg 84%
    01:00 -15°C° 0 mm 5 m/s 751 mmHg 84%
    02:00 -15°C° 0 mm 5 m/s 751 mmHg 84%
    03:00 -15°C° 0 mm 5 m/s 751 mmHg 85%
    04:00 -17°C° 0 mm 5 m/s 752 mmHg 86%
    05:00 -17°C° 0 mm 5 m/s 752 mmHg 87%
    06:00 -16°C° 0 mm 4 m/s 753 mmHg 88%
    07:00 -16°C° 0 mm 4 m/s 753 mmHg 89%
    08:00 -16°C° 0 mm 4 m/s 754 mmHg 90%
    09:00 -15°C° 0 mm 4 m/s 754 mmHg 88%
    10:00 -13°C° 0 mm 3 m/s 754 mmHg 86%
    11:00 -10°C° 0 mm 3 m/s 754 mmHg 85%
    12:00 -10°C° 0 mm 3 m/s 754 mmHg 83%
    13:00 -8°C° 0 mm 2 m/s 754 mmHg 82%
    14:00 -7°C° 0 mm 2 m/s 753 mmHg 81%
    15:00 -7°C° 0 mm 2 m/s 753 mmHg 81%
    16:00 -8°C° 0 mm 2 m/s 753 mmHg 82%
    17:00 -8°C° 0 mm 2 m/s 753 mmHg 82%
    18:00 -8°C° 0 mm 2 m/s 753 mmHg 83%
    19:00 -9°C° 0 mm 3 m/s 753 mmHg 83%
    20:00 -9°C° 0 mm 3 m/s 753 mmHg 84%
    21:00 -9°C° 0 mm 3 m/s 752 mmHg 84%
    22:00 -8°C° 0 mm 3 m/s 752 mmHg 85%
    23:00 -9°C° 0 mm 4 m/s 752 mmHg 85%
    Mostrar mais